User: anonymous   Login
Location: Fort Wayne
(41.1310°N, 85.1290°W)
Time: 16:14:16
(UTC-05:00)
Language:

OPAL - Orbit

View from above orbital plane
View from above orbital plane
View from above satellite
View from above satellite

Ground track
Ground track

The orbit data is extracted from the following two-line orbital elements,

1 26063U 00004C   16041.75935892  .00000070  00000-0  43794-4 0  9999
2 26063 100.1914 309.0625 0035812 256.9849 102.7332 14.36597016840677
Epoch (UTC): 10 February 2016 18:13:28
Eccentricity: 0.0035812
inclination: 100.1914°
perigee height: 744 km
apogee height: 795 km
right ascension of ascending node: 309.0625°
argument of perigee: 256.9849°
revolutions per day: 14.36597016
mean anomaly at epoch: 102.7332°
orbit number at epoch: 84067

The dashed part of the orbit path shows where the satellite is in the earth's shadow,  

DLR